FW6626 Weather Reports


Display with metric or nautical units.
time (UTC)temp
F
wind
direction
speed
MPH
gust
MPH
rain 1hr
in
rain 24hr
in
rain mn
in
humidity
%
barometer
mb
20260905140057 66 0 0.0 3.0 0.00 0.00 0.00 84 1013.5
20260905134602 62 5 1.0 4.0 0.00 0.00 0.00 86 1013.2
20260905133056 61 9 1.0 4.0 0.00 0.00 0.00 86 1012.9
20260905131555 61 352 1.0 4.0 0.00 0.00 0.00 86 1012.9
20260905130101 61 348 1.0 4.0 0.00 0.00 0.00 86 1013.0
20260905124558 61 360 1.0 3.0 0.00 0.00 0.00 86 1013.1
20260905123056 62 5 1.0 4.0 0.00 0.00 0.00 86 1013.1
20260905121600 62 15 2.0 4.0 0.00 0.00 0.00 86 1013.1
20260905120059 62 12 1.0 3.0 0.00 0.00 0.00 86 1013.1
20260905114607 62 0 2.0 4.0 0.00 0.00 0.00 86 1013.0
20260905113054 62 5 0.0 3.0 0.00 0.00 0.00 86 1013.1
20260905111622 62 0 0.0 3.0 0.00 0.00 0.00 86 1013.2
20260905110106 62 360 1.0 3.0 0.00 0.00 0.00 86 1013.3
20260905104619 62 343 0.0 4.0 0.00 0.00 0.00 86 1013.3
20260905103056 62 338 0.0 2.0 0.00 0.00 0.00 86 1013.3
20260905101554 63 338 1.0 3.0 0.00 0.00 0.00 86 1013.3
20260905100056 63 323 1.0 3.0 0.00 0.00 0.00 86 1013.4
20260905094715 63 0 0.0 2.0 0.00 0.00 0.00 86 1013.4
20260905093126 63 0 1.0 2.0 0.00 0.00 0.00 86 1013.4
20260905091602 63 284 1.0 2.0 0.00 0.00 0.00 86 1013.5
20260905090052 63 0 0.0 2.0 0.00 0.00 0.00 86 1013.5
20260905084605 64 284 1.0 3.0 0.00 0.00 0.00 86 1013.6
20260905083056 64 283 0.0 3.0 0.00 0.00 0.00 85 1013.8
20260905081557 64 259 1.0 2.0 0.00 0.00 0.00 86 1014.0
20260905080107 64 259 0.0 1.0 0.00 0.00 0.00 86 1014.3
20260905074602 64 259 1.0 2.0 0.00 0.00 0.00 85 1014.2
20260905073110 65 0 0.0 2.0 0.00 0.00 0.00 85 1014.1
20260905071556 65 0 0.0 0.0 0.00 0.00 0.00 85 1014.3
20260905070057 65 0 0.0 1.0 0.00 0.00 0.00 85 1014.3
20260905064553 65 0 0.0 0.0 0.00 0.00 0.00 85 1014.3
20260905063058 65 0 0.0 0.0 0.00 0.00 0.00 85 1014.4
20260905061605 65 0 0.0 0.0 0.00 0.00 0.00 84 1014.2
20260905060107 65 0 0.0 1.0 0.00 0.00 0.00 84 1014.1
20260905054607 65 0 0.0 0.0 0.00 0.00 0.00 84 1014.1
20260905053101 65 0 0.0 0.0 0.00 0.00 0.00 84 1014.1
20260905051610 65 0 0.0 0.0 0.00 0.00 0.00 83 1014.0
20260905050107 66 254 0.0 2.0 0.00 0.00 0.00 83 1014.2
20260905044604 66 0 0.0 1.0 0.00 0.00 0.00 83 1014.1
20260905043059 66 0 0.0 0.0 0.00 0.00 0.00 83 1013.9
20260905041610 66 0 0.0 0.0 0.00 0.00 0.00 82 1013.6
20260905040108 66 0 0.0 2.0 0.00 0.00 0.00 82 1013.6
20260905034606 66 0 0.0 2.0 0.00 0.00 0.00 81 1013.5
20260905033106 67 0 1.0 3.0 0.00 0.00 0.00 81 1013.3
20260905031554 67 253 1.0 4.0 0.00 0.00 0.00 80 1013.2
20260905030111 68 262 1.0 4.0 0.00 0.00 0.00 80 1013.0
20260905024606 68 255 2.0 4.0 0.00 0.00 0.00 79 1012.9
20260905023058 68 261 2.0 5.0 0.00 0.00 0.00 78 1012.9
20260905021603 69 259 2.0 5.0 0.00 0.00 0.00 77 1013.0
20260905020059 69 250 2.0 4.0 0.00 0.00 0.00 76 1013.0
20260905014557 70 274 3.0 7.0 0.00 0.00 0.00 75 1012.7
20260905013116 71 360 3.0 8.0 0.00 0.00 0.00 72 1012.7
20260905011606 72 0 3.0 9.0 0.00 0.00 0.00 71 1012.8
20260905010106 75 247 3.0 9.0 0.00 0.00 0.00 69 1012.7
20260905004600 74 248 2.0 8.0 0.00 0.00 0.00 69 1013.0
20260905003101 74 229 4.0 9.0 0.00 0.00 0.00 69 1013.1
20260905001553 73 269 6.0 10.0 0.00 0.00 0.00 70 1013.1
20260905000059 75 250 4.0 11.0 0.00 0.00 0.00 69 1013.0
20260904234555 75 252 4.0 10.0 0.00 0.00 0.00 68 1013.1
20260904233055 75 251 5.0 9.0 0.00 0.00 0.00 69 1013.1
20260904231552 76 360 3.0 10.0 0.00 0.00 0.00 68 1013.1
20260904230108 75 224 5.0 13.0 0.00 0.00 0.00 68 1013.3
20260904224615 76 273 3.0 11.0 0.00 0.00 0.00 68 1013.3
20260904223107 75 231 7.0 12.0 0.00 0.00 0.00 66 1013.7
20260904221615 75 257 6.0 13.0 0.00 0.00 0.00 67 1013.6
20260904214555 75 221 6.0 13.0 0.00 0.00 0.00 66 1013.6
20260904213104 76 252 6.0 12.0 0.00 0.00 0.00 66 1013.9
20260904211558 76 250 5.0 11.0 0.00 0.00 0.00 67 1013.8
20260904210100 76 360 5.0 12.0 0.00 0.00 0.00 67 1014.0
20260904204604 76 244 5.0 14.0 0.00 0.00 0.00 67 1014.1
20260904203108 76 360 5.0 13.0 0.00 0.00 0.00 66 1014.0
20260904201616 76 234 5.0 12.0 0.00 0.00 0.00 67 1014.1
20260904200118 75 238 4.0 12.0 0.00 0.00 0.00 66 1014.0
20260904194604 75 231 6.0 11.0 0.00 0.00 0.00 66 1014.1
20260904193100 75 278 3.0 11.0 0.00 0.00 0.00 66 1014.1
20260904191602 75 227 5.0 10.0 0.00 0.00 0.00 65 1014.3
20260904184605 75 241 6.0 12.0 0.00 0.00 0.00 66 1014.7
20260904183057 75 259 4.0 11.0 0.00 0.00 0.00 67 1014.6
20260904181603 74 299 4.0 11.0 0.00 0.00 0.00 67 1014.6
20260904180100 75 229 2.0 10.0 0.00 0.00 0.00 66 1014.7
20260904174602 75 208 3.0 11.0 0.00 0.00 0.00 66 1014.8
20260904173053 74 266 3.0 9.0 0.00 0.00 0.00 67 1014.7
20260904171620 73 232 3.0 9.0 0.00 0.00 0.00 68 1014.9
20260904170059 73 234 5.0 9.0 0.00 0.00 0.00 68 1014.9
20260904164558 74 221 2.0 6.0 0.00 0.00 0.00 65 1014.6
20260904163100 75 175 3.0 8.0 0.00 0.00 0.00 64 1014.4
20260904161603 75 116 3.0 9.0 0.00 0.00 0.00 64 1014.5
20260904160100 76 114 2.0 7.0 0.00 0.00 0.00 63 1014.2
20260904154556 74 85 2.0 8.0 0.00 0.00 0.00 66 1014.0
20260904153116 72 105 4.0 9.0 0.00 0.00 0.00 66 1014.0
20260904151559 70 105 5.0 8.0 0.00 0.00 0.00 71 1013.9
20260904150057 70 115 5.0 9.0 0.00 0.00 0.00 70 1013.9
20260904144613 69 105 4.0 8.0 0.00 0.00 0.00 74 1013.8
20260904143121 66 90 4.0 8.0 0.00 0.00 0.00 77 1013.8
20260904141559 67 82 2.0 5.0 0.00 0.00 0.00 76 1013.7